SL-16 DEB, 22502

Orbit data source: Space-Track

SL-16 DEB, 22502 is space debris in LEO originally from a launch on Fri, 25 Dec 1992 UTC launched from the Tyuratam Missile And Space Complex (TTMTR). Debris objects in space refer to the collection of defunct objects orbiting the Earth. Examples of debris include non-operational satellites, rocket bodies, and fragments generated from explosions, collisions, or faulty payload assembly.

Loading next visibility...
Identifier
22502, 1992-093GM
Orbit
LEO
Country
Flag of CISCIS
Related business
Manufacturer
Unknown
Mission
Spacecraft
Bus & Motor
Unknown
Mass
Unknown
Launch date (UTC)
1992-12-25 (33 years ago)
Launch vehicle
Unknown
Launch site
Tyuratam Missile And Space Complex (TTMTR)
Object type
Payload
Rocket body
Debris
Shape & HBR
Unknown shape, 0.1 m
Radar Cross Section
Small (<0.1 m²)

Expand to show TLE details & history
Last TLE update: 13 hours ago

TLE from 13 hours ago
0 SL-16 DEB
1 22502U 92093GM  26037.03887154  .00000278  00000-0  24038-3 0  9995
2 22502  70.8132 240.1841 0150746 121.3955  34.8351 13.89652722676124
Epoch: 2026-02-06T00:55Z
TLE epoch observation values (Epoch: 2026-02-06T00:55:58.501Z)
Latitude
21.4592°
Longitude
-97.81213°
Altitude
842.045 km
Speed
7.479 km/s
True Right ascension
03h 29m 27s
True Declination
21° 20' 37"
Sunlit
Object was in daylight at epoch
Visualization orbit readout
Latitude
Unknown
Longitude
Unknown
Altitude
Unknown
Speed
Unknown
Apparent Right ascension
Unknown
Apparent Declination
Unknown
Sunlit
N/A
Visualization observer readout
Local Sidereal Time
15:51:28
Azimuth
Unknown
Elevation
Unknown
Doppler factor
Unknown
Orbital elements
Apogee altitude
1,037.95 km
Perigee altitude
817.681 km
Semi-major axis
7,305.952 km
Eccentricity
0.01507
Inclination
70.8132°
RAAN
240.1841°
Arg. of periapsis
121.3955°
True anomaly
35.83727°
Mean anomaly
34.8351°
Eccentric anomaly
35.33463°
Mean motion
3.47558 °/min
Orbital period
103.58 mins
BSTAR
0.00024038
Loading maneuver chart data...
Computing Atmospheric mass density...

Documentation

Showing up to 5 results
|